FW1783 Houston TX US current weather conditions

sailwx.info

Wind from 248 at 6 knots gusting 9

Last reported at 2020-Aug-13 14:01 UTC.
Time now 2020-Aug-13 14:27 UTC

Location: N 29°36' W 095°11'.
View on Google Maps.

See reports from other nearby stations

  
Tides and Currents Weather Stations Pressure Air Temp Water Temp Dewpoint Dewpoint Depression Visibility Wind Speed Wind Dir Waves Ship Positions
date/time (UTC)wind fromknots sea level pressurealtimeterstation pressurevisibilityair tempwater tempwave heightnotes
2020-Aug-13 14:01 248 6 gusting 9
2020-Aug-13 13:45 286 5 gusting 9 -67.8
2020-Aug-13 13:30 302 3 gusting 7 -67.8
2020-Aug-13 13:15 273 1 gusting 6 -67.8
2020-Aug-13 13:00 274 0 gusting 5 -67.8
2020-Aug-13 12:45 307 0 gusting 4 -67.8
2020-Aug-13 12:30 028 1 gusting 5
2020-Aug-13 12:16 291 0 gusting 3 -67.8
2020-Aug-13 12:01 256 1 gusting 5
2020-Aug-13 11:47 270 1 gusting 6
2020-Aug-13 11:31 305 1 gusting 4
2020-Aug-13 11:16 296 1 gusting 6
2020-Aug-13 11:01 279 2 gusting 5
2020-Aug-13 10:46 263 1 gusting 6
2020-Aug-13 10:31 251 1 gusting 6
2020-Aug-13 10:15 270 0 gusting 5
2020-Aug-13 10:00 265 0 gusting 5
2020-Aug-13 09:45 283 0 gusting 2
2020-Aug-13 09:30 294 0 gusting 2
2020-Aug-13 09:15 261
2020-Aug-13 09:00 182
2020-Aug-13 08:46 284 0 gusting 2
2020-Aug-13 08:32 256 1 gusting 5
2020-Aug-13 08:16 320
2020-Aug-13 08:01 158
2020-Aug-13 07:47 169 0 gusting 2
2020-Aug-13 07:31 151 0 gusting 2
2020-Aug-13 07:16 183
2020-Aug-13 07:03 175 0 gusting 2
2020-Aug-13 06:46 171 0 gusting 2
2020-Aug-13 06:31 182 0 gusting 1
2020-Aug-13 06:15 174
2020-Aug-13 06:01 287 2 gusting 6
2020-Aug-13 05:45 266 3 gusting 6
2020-Aug-13 05:30 226 1 gusting 6
2020-Aug-13 05:15 273 4 gusting 8
2020-Aug-13 05:02 279 3 gusting 6
2020-Aug-13 04:47 291 4 gusting 7
2020-Aug-13 04:31 296 3 gusting 6
2020-Aug-13 04:16 274 3 gusting 10
2020-Aug-13 04:01 245 1 gusting 5
2020-Aug-13 03:46 236 4 gusting 9
2020-Aug-13 03:30 265 5 gusting 8
2020-Aug-13 03:15 271 2 gusting 7
2020-Aug-13 03:00 244 2 gusting 7
2020-Aug-13 02:45 338 3 gusting 10
2020-Aug-13 02:30 298 3 gusting 8
2020-Aug-13 02:15 294 2 gusting 8
2020-Aug-13 02:00 261 2 gusting 10
2020-Aug-13 01:45 237 1 gusting 8
2020-Aug-13 01:32 277 1 gusting 7
2020-Aug-13 01:17 299 1 gusting 7
2020-Aug-13 01:01 334 4 gusting 9
2020-Aug-13 00:46 342 3 gusting 12
2020-Aug-13 00:31 348 4 gusting 7
2020-Aug-13 00:15 331 5 gusting 13
2020-Aug-13 00:00 020 4 gusting 8
2020-Aug-12 23:46 254 4 gusting 8
2020-Aug-12 23:30 224 5 gusting 13
2020-Aug-12 23:15 266 5 gusting 12
2020-Aug-12 23:00 298 6 gusting 12
2020-Aug-12 22:45 243 5 gusting 12
2020-Aug-12 22:30 350 5 gusting 11
2020-Aug-12 22:16 237 4 gusting 9
2020-Aug-12 22:02 290 4 gusting 12
2020-Aug-12 21:47 327 3 gusting 10
2020-Aug-12 21:31 360 2 gusting 7
2020-Aug-12 21:16 341 4 gusting 7
2020-Aug-12 21:00 019 3 gusting 7
2020-Aug-12 20:45 262 1 gusting 10
2020-Aug-12 20:31 261 2 gusting 6
2020-Aug-12 20:15 269 1 gusting 6
2020-Aug-12 20:00 319 1 gusting 7
2020-Aug-12 19:46 304 0 gusting 9 -67.8
2020-Aug-12 19:30 174 0 gusting 7 -67.8
2020-Aug-12 19:15 022 2 gusting 6 -67.8
2020-Aug-12 19:00 028 1 gusting 7 -67.8
2020-Aug-12 18:47 320 6 gusting 8 -67.8
2020-Aug-12 18:32 183 1 gusting 6 -67.8
2020-Aug-12 18:16 317 2 gusting 8 -67.8
2020-Aug-12 18:01 252 1 gusting 9 -67.8
2020-Aug-12 17:46 039 1 gusting 7 -67.8
2020-Aug-12 17:30 295 1 gusting 6 -67.8
2020-Aug-12 17:17 271 1 gusting 11 -67.8
2020-Aug-12 17:00 251 5 gusting 9 -67.8
2020-Aug-12 16:45 340 3 gusting 9
2020-Aug-12 16:31 285 6 gusting 9
2020-Aug-12 16:15 277 2 gusting 10
2020-Aug-12 16:00 257 3 gusting 10
2020-Aug-12 15:45 218 2 gusting 9
2020-Aug-12 15:18 246 5 gusting 12
2020-Aug-12 15:02 243 4 gusting 11
2020-Aug-12 14:47 291 2 gusting 11
2020-Aug-12 14:31 248 4 gusting 11
2020-Aug-12 14:17 281 4 gusting 8
2020-Aug-12 14:00 271 2 gusting 7
2020-Aug-12 13:46 259 0 gusting 5
2020-Aug-12 13:30 062
2020-Aug-12 13:15 310 0 gusting 6
2020-Aug-12 13:00 259 1 gusting 5
2020-Aug-12 12:45 169
2020-Aug-12 12:30 276 1 gusting 6
2020-Aug-12 12:15 257 2 gusting 6
2020-Aug-12 12:01 265 2 gusting 6
2020-Aug-12 11:47 270 1 gusting 6
2020-Aug-12 11:31 275 1 gusting 6
2020-Aug-12 11:16 296 0 gusting 3
2020-Aug-12 11:00 323 0 gusting 3
2020-Aug-12 10:46 259 2 gusting 6
2020-Aug-12 10:31 272 0 gusting 3
2020-Aug-12 10:15 282 1 gusting 6
2020-Aug-12 10:00 258 1 gusting 6
2020-Aug-12 09:45 291 1 gusting 6
2020-Aug-12 09:30 257 2 gusting 6
2020-Aug-12 09:15 299 0 gusting 2
2020-Aug-12 09:00 255 0 gusting 5
2020-Aug-12 08:46 273 0 gusting 3
2020-Aug-12 08:31 285 0 gusting 4
2020-Aug-12 08:16 311
2020-Aug-12 08:00 270 0 gusting 5
2020-Aug-12 07:46 252 2 gusting 6
2020-Aug-12 07:31 276 2 gusting 6
2020-Aug-12 07:16 288 1 gusting 5
2020-Aug-12 07:00 292 2 gusting 6
2020-Aug-12 06:46 196 1 gusting 6
2020-Aug-12 06:31 246 0 gusting 6
2020-Aug-12 06:15 194 0 gusting 6
2020-Aug-12 06:00 272 1 gusting 5
2020-Aug-12 05:45 215 0 gusting 4
2020-Aug-12 05:30 019
2020-Aug-12 05:15 295 1 gusting 4
2020-Aug-12 05:00 288 2 gusting 5
2020-Aug-12 04:47 205 1 gusting 5
2020-Aug-12 04:31 248 1 gusting 5
2020-Aug-12 04:16 059 1 gusting 6
2020-Aug-12 04:01 328 0 gusting 5
2020-Aug-12 03:46 193 0 gusting 4
2020-Aug-12 03:31 355 0 gusting 4
2020-Aug-12 03:15 312 1 gusting 6
2020-Aug-12 03:00 038 2 gusting 6
2020-Aug-12 02:45 029 2 gusting 6
2020-Aug-12 02:30 130 2 gusting 8
2020-Aug-12 02:15 316 2 gusting 7
2020-Aug-12 02:00 324 3 gusting 9
2020-Aug-12 01:45 156 3 gusting 9
2020-Aug-12 01:31 005 3 gusting 7
2020-Aug-12 01:16 304 2 gusting 8
2020-Aug-12 01:01 335 2 gusting 9
2020-Aug-12 00:46 005 2 gusting 8
2020-Aug-12 00:31 250 5 gusting 9
2020-Aug-12 00:16 323 4 gusting 9
2020-Aug-12 00:01 298 5 gusting 9
2020-Aug-11 23:45 235 3 gusting 12
2020-Aug-11 23:30 229 5 gusting 13
2020-Aug-11 23:15 324 5 gusting 9
2020-Aug-11 23:00 054 5 gusting 13
2020-Aug-11 22:45 019 5 gusting 12
2020-Aug-11 22:30 288 5 gusting 10
2020-Aug-11 22:15 337 5 gusting 14
2020-Aug-11 22:02 215 5 gusting 12
2020-Aug-11 21:46 321 5 gusting 9
2020-Aug-11 21:32 215 5 gusting 13
2020-Aug-11 21:16 270 6 gusting 10
2020-Aug-11 21:02 355 4 gusting 7
2020-Aug-11 20:46 208 6 gusting 12
2020-Aug-11 20:31 267 6 gusting 12
2020-Aug-11 20:16 230 4 gusting 8
2020-Aug-11 20:00 279 3 gusting 8
2020-Aug-11 19:45 161 0 gusting 5
2020-Aug-11 19:30 155 3 gusting 9
2020-Aug-11 19:15 319 2 gusting 7
2020-Aug-11 19:00 360 3 gusting 9
2020-Aug-11 18:45 291 2 gusting 12
2020-Aug-11 18:32 301 4 gusting 7
2020-Aug-11 18:17 201 1 gusting 7
2020-Aug-11 18:01 315 2 gusting 8
2020-Aug-11 17:46 227 2 gusting 8
2020-Aug-11 17:33 274 2 gusting 10
2020-Aug-11 17:16 355 2 gusting 9
2020-Aug-11 17:00 296 1 gusting 11
2020-Aug-11 16:45 332 3 gusting 9
2020-Aug-11 16:30 292 4 gusting 11
2020-Aug-11 16:15 244 5 gusting 10
2020-Aug-11 16:01 292 0 gusting 6
2020-Aug-11 15:45 222 4 gusting 13
2020-Aug-11 15:30 273 3 gusting 11
2020-Aug-11 15:17 298 0 gusting 13
2020-Aug-11 15:02 232 3 gusting 11
2020-Aug-11 14:46 304 5 gusting 11
2020-Aug-11 14:31 290 5 gusting 9
2020-Aug-11 14:16 252 5 gusting 10
2020-Aug-11 14:01 272 2 gusting 6